Tracking 30692 objects as of 16-Jun-2025
HD Live streaming from Space Station
objects crossing your sky now

LAYAN-23

Track LAYAN-23 now!
10-day predictions


NORAD ID: 56939
Int'l Code: 2023-084H
Perigee: 358.8 km
Apogee: 363.1 km
Inclination: 97.6 °
Period: 91.6 minutes
Semi major axis: 6731 km
RCS: Unknown
Launch date: June 12, 2023
Source: Republic of Rwanda (RWA)
Launch site: AIR FORCE WESTERN TEST RANGE (AFWTR)
Your satellite tracking list
Your tracking list is empty




NASA's NSSDC Master Catalog

Two Line Element Set (TLE):
1 56939U 23084H   25167.18498385  .00047712  00000-0  36870-3 0  9994
2 56939  97.5534 309.2496 0003194 132.5434 227.6098 15.71780691112541
Source of the keplerian elements: AFSPC